Tracking 30701 objects as of 14-Jun-2025
HD Live streaming from Space Station
objects crossing your sky now

STARLINK-31497

Track STARLINK-31497 now!
10-day predictions
STARLINK-31497 is classified as:


NORAD ID: 60592
Int'l Code: 2024-150K
Perigee: 481.5 km
Apogee: 483.3 km
Inclination: 53.2 °
Period: 94.1 minutes
Semi major axis: 6853 km
RCS: Unknown
Launch date: August 20, 2024
Source: United States (US)
Launch site: AIR FORCE EASTERN TEST RANGE (AFETR)
Your satellite tracking list
Your tracking list is empty




NASA's NSSDC Master Catalog

Two Line Element Set (TLE):
1 60592U 24150K   25165.13494634  .00000215  00000-0  19397-4 0  9998
2 60592  53.1594 114.4930 0001327  80.1325 279.9825 15.30194829 46920
Source of the keplerian elements: AFSPC